DateTimeUTC,F1_A11,F1_S11,BsB_S11,BsG_S11,BsR_S11,BbsB_S11,BbsG_S11,BbsR_S11,BaB_A11,BaG_A11,BaR_A11,Tu_S11,T_S11,Uu_S11,U_S11,P_S11,T1_A11
2021-05-09T01:00:00Z,00000200,21000000,,,,,,,-000.29,-000.42,0000.03,15.7,23.4,,00.0,0670.5,30.9
2021-05-09T01:01:00Z,00000200,21000000,,,,,,,0000.04,0000.34,-000.29,15.7,23.4,,00.0,0670.5,30.9
2021-05-09T01:02:00Z,00000200,21000000,,,,,,,-000.08,-000.72,-000.02,15.7,23.5,,00.0,0670.5,30.9
2021-05-09T01:03:00Z,00000200,61000000,,,,,,,0000.19,0000.92,0000.18,15.8,23.5,,00.0,0670.5,30.9
2021-05-09T01:04:00Z,00000200,41000000,0000.74,0000.28,0000.17,-000.03,0000.26,-000.08,0000.54,-000.27,-000.15,16.2,23.3,,00.0,0671.5,30.9
2021-05-09T01:05:00Z,00000200,01000000,0001.15,0000.55,0000.46,0000.42,0000.25,0000.33,0000.25,0000.35,0000.69,16.2,23.3,,00.0,0671.5,30.9
2021-05-09T01:06:00Z,00000200,01000000,0001.27,0000.39,0000.13,0000.41,0000.10,0000.09,0000.59,0000.38,0000.39,16.3,23.3,,00.0,0671.5,30.9
2021-05-09T01:07:00Z,00000200,01000000,0000.83,0000.71,0000.17,0000.21,0000.08,0000.15,0000.13,0000.65,-000.13,16.3,23.3,,00.0,0671.6,30.9
2021-05-09T01:08:00Z,00000200,01000000,0000.52,0000.65,0000.55,0000.06,0000.16,0000.14,0000.31,0000.31,0000.44,16.2,23.2,,00.0,0671.5,30.9
2021-05-09T01:09:00Z,00000200,01000000,0001.86,0000.99,0000.19,0000.21,-000.06,0000.12,0000.55,-000.02,0000.11,16.2,23.2,,00.0,0671.6,30.9
2021-05-09T01:10:00Z,00000200,01000000,0000.90,0000.98,0000.49,0000.18,0000.32,0000.12,0000.51,0000.89,0000.46,16.1,23.2,,00.0,0671.6,30.9
2021-05-09T01:11:00Z,00000200,01000000,0002.06,0000.67,0000.37,0000.50,0000.14,0000.34,0000.56,0000.14,0000.12,16.1,23.1,,00.0,0671.6,30.9
2021-05-09T01:12:00Z,00000200,01000000,0001.03,0000.59,0000.22,-000.04,0000.01,0000.07,0000.38,0000.95,0000.61,16.1,23.1,,00.0,0671.6,30.9
2021-05-09T01:13:00Z,00000200,01000000,0000.83,0000.95,0000.18,0000.15,-000.01,-000.08,0000.49,-000.27,-000.25,16.1,23.1,,00.0,0671.6,30.9
2021-05-09T01:14:00Z,00000200,01000000,0000.72,0000.70,0000.45,0000.44,0000.30,-000.02,0001.02,0001.10,0001.16,16.1,23.1,,00.0,0671.6,30.9
2021-05-09T01:15:00Z,00000200,01000000,0001.37,0000.93,0000.02,0000.15,0000.36,0000.05,0001.78,0001.66,0001.22,16.2,23.1,,00.0,0671.6,30.9
2021-05-09T01:16:00Z,00000200,01000000,0000.65,0000.83,0000.24,-000.11,0000.31,0000.35,0000.92,0000.73,0000.44,16.2,23.2,,00.0,0671.6,30.9
2021-05-09T01:17:00Z,00000200,01000000,0001.41,0000.80,0000.35,0000.56,0000.20,-000.04,0000.22,0000.16,-000.06,16.2,23.2,,00.0,0671.6,30.9
2021-05-09T01:18:00Z,00000200,01000000,0000.97,0000.90,0000.49,0000.24,0000.20,0000.38,0000.30,0000.46,0000.51,16.3,23.2,,00.0,0671.6,30.9
2021-05-09T01:19:00Z,00000200,01000000,0001.32,0000.79,0000.24,-000.34,0000.18,-000.15,0000.58,0000.28,0000.43,16.3,23.2,,00.0,0671.6,31.0
2021-05-09T01:20:00Z,00000200,01000000,0001.08,0000.90,0000.65,0000.37,0000.33,0000.25,0000.38,0000.36,-000.10,16.3,23.2,,00.0,0671.7,31.0
2021-05-09T01:21:00Z,00000200,01000000,0001.05,0000.70,0000.12,0000.30,0000.08,-000.18,0000.10,0000.10,0000.30,16.3,23.2,,00.0,0671.6,30.9
2021-05-09T01:22:00Z,00000200,01000000,0001.38,0001.17,0000.26,0000.04,0000.01,0000.00,0000.56,0000.40,0000.36,16.3,23.2,,00.0,0671.7,30.9
2021-05-09T01:23:00Z,00000200,01000000,0001.73,0000.69,0000.54,0000.48,0000.08,0000.02,0000.64,0000.96,0000.07,16.2,23.2,,00.0,0671.7,30.9
2021-05-09T01:24:00Z,00000200,01000000,0001.56,0001.34,0000.54,0000.76,0000.11,-000.01,0000.65,0000.12,0000.44,16.2,23.2,,00.0,0671.6,30.9
2021-05-09T01:25:00Z,00000200,01000000,0001.15,0001.35,0000.50,0000.49,0000.25,0000.01,0000.08,0000.46,0000.19,16.1,23.1,,00.0,0671.7,30.9
2021-05-09T01:26:00Z,00000200,01000000,0001.27,0000.87,0000.52,0000.41,0000.25,0000.19,0000.72,0000.52,0000.45,16.1,23.1,,00.0,0671.7,30.9
2021-05-09T01:27:00Z,00000200,01000000,0001.59,0000.81,0000.64,0000.92,0000.13,0000.19,0000.60,0000.57,0000.39,16.1,23.1,,00.0,0671.7,30.9
2021-05-09T01:28:00Z,00000200,01000000,0001.99,0001.12,0000.31,0000.93,0000.08,0000.08,0000.64,0000.28,0000.39,16.1,23.1,,00.0,0671.6,30.9
2021-05-09T01:29:00Z,00000200,01000000,0001.84,0001.08,0000.27,0000.74,0000.21,0000.18,0000.45,0000.51,0000.47,16.1,23.1,,00.0,0671.6,30.9
2021-05-09T01:30:00Z,00000200,01000000,0002.00,0001.07,0000.86,0000.47,0000.19,0000.38,0000.53,0000.52,0000.08,16.1,23.1,,00.0,0671.6,30.9
2021-05-09T01:31:00Z,00000200,01000000,0001.47,0000.88,0000.39,0000.31,0000.03,0000.00,0000.50,0000.51,0000.24,16.1,23.1,,00.0,0671.6,30.9
2021-05-09T01:32:00Z,00000200,01000000,0001.59,0001.02,0000.34,0000.26,0000.19,0000.05,0001.02,0000.61,0000.60,16.2,23.1,,00.0,0671.6,30.9
2021-05-09T01:33:00Z,00000200,01000000,0001.11,0000.95,0000.61,0000.48,0000.16,0000.31,0000.13,0000.22,0000.48,16.2,23.1,,00.0,0671.6,30.9
2021-05-09T01:34:00Z,00000200,01000000,0001.61,0001.22,0000.48,0000.07,0000.10,-000.16,0000.78,0000.90,0000.13,16.3,23.1,,00.0,0671.6,31.0
2021-05-09T01:35:00Z,00000200,01000000,0001.62,0000.74,0000.36,-000.11,0000.05,0000.02,0000.64,0000.68,0000.59,16.3,23.2,,00.0,0671.6,30.9
2021-05-09T01:36:00Z,00000200,01000000,0001.23,0000.58,0000.40,0000.37,0000.39,0000.03,0000.52,0000.34,0000.39,16.3,23.2,,00.0,0671.6,30.9
2021-05-09T01:37:00Z,00000200,01000000,0000.97,0000.64,0000.24,0000.60,0000.04,0000.19,0000.77,0000.54,0000.43,16.3,23.2,,00.0,0671.6,30.9
2021-05-09T01:38:00Z,00000200,01000000,0000.96,0000.91,0000.02,-000.15,0000.04,-000.19,0000.44,0000.33,0000.09,16.2,23.2,,00.0,0671.6,30.9
2021-05-09T01:39:00Z,00000200,01000000,0000.93,0000.77,-000.13,0000.21,0000.37,-000.10,0000.86,0001.26,0000.93,16.2,23.1,,00.0,0671.6,30.9
2021-05-09T01:40:00Z,00000200,01000000,0001.36,0000.89,0000.45,0000.39,0000.04,0000.11,0003.26,0002.95,0002.59,16.1,23.1,,00.0,0671.6,30.9
2021-05-09T01:41:00Z,00000200,01000000,0001.59,0001.02,0000.47,0000.56,0000.31,0000.34,0008.99,0007.98,0005.92,16.1,23.1,,00.0,0671.6,30.9
2021-05-09T01:42:00Z,00000200,01000000,0002.38,0002.00,0001.18,0000.68,0000.64,0000.19,0033.87,0030.70,0023.39,16.0,23.0,,00.0,0671.6,30.9
2021-05-09T01:43:00Z,00000200,01000000,0003.95,0002.36,0001.52,0001.00,0000.82,0000.32,0060.29,0054.23,0042.02,16.1,23.0,,00.0,0671.6,30.9
2021-05-09T01:44:00Z,00000200,01000000,0006.44,0004.76,0002.91,0002.41,0001.65,0000.97,0130.59,0118.10,0090.82,16.1,23.1,,00.0,0671.6,30.9
2021-05-09T01:45:00Z,00000200,01000000,0004.36,0003.17,0001.89,0001.49,0000.56,0000.66,0081.53,0074.63,0058.02,16.1,23.1,,00.0,0671.6,30.9
2021-05-09T01:46:00Z,00000200,01000000,0003.39,0002.16,0000.83,0000.71,0000.63,0000.10,0041.82,0037.81,0028.88,16.1,23.1,,00.0,0671.6,30.9
2021-05-09T01:47:00Z,00000200,01000000,0001.58,0001.53,0001.00,0000.19,0000.47,0000.30,0023.85,0021.73,0016.78,16.2,23.1,,00.0,0671.6,30.9
2021-05-09T01:48:00Z,00000200,01000000,0002.08,0001.08,0000.58,0000.75,0000.27,0000.16,0018.84,0017.25,0013.33,16.2,23.1,,00.0,0671.6,30.9
2021-05-09T01:49:00Z,00000200,01000000,0002.31,0001.33,0000.80,0000.75,0000.60,0000.19,0027.88,0025.22,0019.39,16.2,23.1,,00.0,0671.6,30.9
2021-05-09T01:50:00Z,00000200,01000000,0002.40,0001.29,0000.74,0000.66,0000.43,0000.37,0032.41,0029.29,0022.63,16.2,23.1,,00.0,0671.6,30.9
2021-05-09T01:51:00Z,00000200,01000000,0003.13,0001.81,0001.36,0000.86,0000.73,0000.36,0036.56,0032.90,0025.34,16.2,23.1,,00.0,0671.6,30.9
2021-05-09T01:52:00Z,00000200,01000000,0002.33,0001.55,0001.11,0000.88,0000.21,0000.44,0022.79,0021.08,0016.00,16.1,23.1,,00.0,0671.6,30.9
2021-05-09T01:53:00Z,00000200,01000000,0002.26,0001.33,0000.90,0000.46,0000.30,-000.06,0016.19,0014.06,0011.13,16.1,23.1,,00.0,0671.6,30.9
2021-05-09T01:54:00Z,00000200,01000000,0001.61,0000.91,0000.54,0000.61,0000.18,-000.11,0009.78,0009.65,0007.21,16.0,23.0,,00.0,0671.6,30.9
2021-05-09T01:55:00Z,00000200,01000000,0001.14,0001.00,0000.43,0000.55,0000.05,-000.05,0010.28,0008.70,0006.86,16.0,23.0,,00.0,0671.6,30.8
2021-05-09T01:56:00Z,00000200,01000000,0002.32,0001.36,0000.96,0000.51,0000.48,0000.46,0019.65,0018.26,0013.67,15.9,23.0,,00.0,0671.6,30.8
2021-05-09T01:57:00Z,00000200,41000000,,,,,,,0009.41,0008.44,0006.57,16.0,23.0,,00.0,0671.6,30.9
2021-05-09T01:58:00Z,00000200,61000000,,,,,,,0000.08,-000.24,-000.04,15.5,23.2,,00.0,0670.7,30.9
2021-05-09T01:59:00Z,00000200,21000000,,,,,,,-000.19,0000.00,0000.19,15.5,23.3,,00.0,0670.6,30.9
